Regional Weather Roundup
Issued by NWS Jackson, KY

Home | Current Version | Previous Version | Text Only | Print | Product List | Glossary On
Versions: 1 2 3 4 5 6 7 8 9 10 11 12 13 14 15 16 17 18 19 20 21 22 23 24 25 26 27 28 29 30 31 32 33 34 35 36 37 38 39 40 41 42 43 44 45 46 47 48 49 50
000
ASUS43 KJKL 252010
RWRJKL

EAST KENTUCKY HOURLY WEATHER ROUNDUP
NATIONAL WEATHER SERVICE JACKSON KY
400 PM EDT SAT MAR 25 2017

NOTE: "FAIR" INDICATES FEW OR NO CLOUDS BELOW 12,000 FEET WITH
NO SIGNIFICANT WEATHER AND/OR OBSTRUCTIONS TO VISIBILITY.

* THESE REPORTS ARE NOT UNDER NWS QUALITY CONTROL AND MAY NOT
  REPORT WEATHER SUCH AS PRECIPITATION AND FOG.

KYZ079-080-083-085-087-088-110-112-115-119-120-252100
...EASTERN KENTUCKY...

CITY           SKY/WX    TMP DP  RH WIND       PRES   REMARKS
JACKSON        PTSUNNY   76  48  37 SW5       30.10F
LONDON         CLOUDY    74  47  38 S10       30.09F
SOMERSET*      CLOUDY    73  46  38 S12G21    30.09F
MONTICELLO*    CLOUDY    74  52  46 S8        30.08F
WILLIAMSBURG*  CLOUDY    73  50  43 SE15G23   30.09F
MIDDLESBORO*   MOSUNNY   74  50  43 S3        30.12F
HARLAN APT*    MOCLDY    73  43  33 E3        30.13F
PIKE CO APT*     N/A     74  47  37 S3        30.11S
BIG SANDY APT* CLOUDY    77  49  36 CALM      30.10F
MOREHEAD APT*  CLOUDY    75  46  35 SE3       30.11F
ASHLAND*       CLOUDY    64  52  63 CALM      30.09F
$$

KYZ035-036-041-042-044-050-067-078-099-252100
...CENTRAL KENTUCKY...

CITY           SKY/WX    TMP DP  RH WIND       PRES   REMARKS
MT STERLING*   CLOUDY    73  50  43 S5        30.09F
FLEMING/MASON* CLOUDY    73  50  45 S3        30.10F
DANVILLE*      CLOUDY    73  50  43 S13G21    30.08F
LEXINGTON      CLOUDY    76  49  38 S16       30.06F
FRANKFORT      CLOUDY    78  47  33 S15       30.03F
LOUISVILLE     CLOUDY    78  47  33 S20       30.00F
LEBANON*         N/A     73  50  43 S20       30.05F
GLASGOW*       CLOUDY    73  50  44 S9        30.02F
BOWLING GREEN  CLOUDY    75  53  46 S20G30    30.00F
$$

KYZ091>093-OHZ055-061-077-WVZ005-015-034-035-042-252100
...SOUTHERN OHIO/WEST VIRGINIA...

CITY           SKY/WX    TMP DP  RH WIND       PRES   REMARKS
COVINGTON      CLOUDY    76  52  43 SE16      30.04F
COLUMBUS       CLOUDY    73  51  46 S8        30.09F
DAYTON         CLOUDY    73  51  46 SE13      30.05F
WILMINGTON     CLOUDY    70  52  52 S14       30.07F
HUNTINGTON     CLOUDY    73  47  39 S5        30.10F
CHARLESTON     CLOUDY    76  46  34 S3        30.11F
PINEVILLE*     PTSUNNY   78  37  22 MISG      30.17F
BECKLEY        CLOUDY    71  44  37 E5        30.16F
BLUEFIELD      CLOUDY    68  43  40 VRB6      30.19F
LOGAN CO APT*    N/A     75  45  33 CALM      30.12F
$$

VAZ002-007-008-TNZ017-027-036-066-071-252100
...SOUTHWEST VIRGINIA/EAST TENNESSEE...

CITY           SKY/WX    TMP DP  RH WIND       PRES   REMARKS
WISE*          PTSUNNY   72  41  33 S9G16     30.18F
JONESVILLE*      N/A     75  46  35 SW5       30.15F
ABINGDON*      SUNNY     74  45  35 W9        30.15F
BRISTOL        PTSUNNY   74  48  39 CALM      30.14F
MORRISTOWN*    CLEAR     75  50  41 SW8       30.12F
SEVIERVILLE*   CLEAR     75  46  35 E10       30.11F
KNOXVILLE      PTSUNNY   73  48  41 SW8       30.11F
LAFOLLETTE*    PTCLDY    73  50  43 S9        30.13F
OAK RIDGE      MOSUNNY   76  47  35 S12G17    30.12F
CROSSVILLE     PTSUNNY   69  49  48 SE12G23   30.11F
NASHVILLE      CLOUDY    75  54  47 S20G26    30.01F
$$

...KEY TO REMARKS...
VSB - VISIBILITY IN MILES
WCI - WIND CHILL INDEX
HX  - HEAT INDEX

$$



USA.gov is the U.S. government's official web portal to all federal, state and local government web resources and services.